Weather History for Three Rivers, MI

Change the Weather History Date:

Tuesday, March 26, 2013

  Actual Average Record
Temperature  
Mean Temperature 36 °F -  
Max Temperature 41 °F 49 °F 78 °F (2007)
Min Temperature 32 °F 30 °F 16 °F (2014)
Degree Days  
Heating Degree Days 28    
Moisture  
Dew Point 27 °F    
Average Humidity 74    
Maximum Humidity 83    
Minimum Humidity 57    
Precipitation  
Precipitation 0.00 in - - ()
Sea Level Pressure  
Sea Level Pressure 30.08 in    
Wind  
Wind Speed 9 mph (NW)    
Max Wind Speed 20 mph    
Max Gust Speed 24 mph    
Visibility 10 miles    
Events Snow    
Averages and records for this station are not official NWS values.
T = Trace of Precipitation, MM = Missing Value Source: NWS Daily Summary

Daily Weather History Graph

Daily Weather History Graph

Search for Another Location

Airport:

Trip Planner

Search our weather history database for the weather conditions in past years. The results will help you decide how hot, cold, wet, or windy it might be!

Date:

Astronomy

Mar. 26, 2013 Rise Set
Actual Time 7:34 AM EDT 8:01 PM EDT
Civil Twilight 7:07 AM EDT 8:29 PM EDT
Nautical Twilight 6:34 AM EDT 9:02 PM EDT
Astronomical Twilight 6:00 AM EDT 9:36 PM EDT
Moon 7:37 PM EDT 6:51 AM EDT
Length of Visible Light 13h 22m
Length of Day
12h 26m
Waxing Gibbous, 99% of the Moon is Illuminated
Mar 26
Waxing Gibbous
Mar 27
Full
Apr 3
Last Quarter
Apr 10
New
Apr 18
First Quarter

Hourly Weather History & Observations

Time (EDT) Temp. Windchill Dew Point Humidity Pressure Visibility Wind Dir Wind Speed Gust Speed Precip Events Conditions
12:14 AM 33.4 °F 28.1 °F 25.7 °F 73% 29.97 in 10.0 mi NNW 5.8 mph - N/A   Overcast
12:34 AM 33.3 °F 27.1 °F 26.1 °F 75% 29.97 in 10.0 mi NNW 6.9 mph - N/A   Overcast
12:55 AM 33.3 °F 28.9 °F 25.7 °F 74% 29.97 in 10.0 mi North 4.6 mph - N/A   Overcast
1:14 AM 33.3 °F 28.9 °F 25.7 °F 74% 29.97 in 10.0 mi NNW 4.6 mph - N/A   Overcast
1:34 AM 33.3 °F 27.1 °F 25.7 °F 74% 29.98 in 10.0 mi NNW 6.9 mph - N/A   Overcast
1:55 AM 33.3 °F 27.1 °F 25.7 °F 74% 29.98 in 10.0 mi NNW 6.9 mph - N/A   Overcast
2:14 AM 33.1 °F 26.1 °F 25.5 °F 74% 29.98 in 10.0 mi NW 8.1 mph - N/A   Overcast
2:35 AM 32.9 °F 28.5 °F 25.3 °F 74% 29.99 in 10.0 mi NNW 4.6 mph - N/A   Overcast
2:55 AM 32.9 °F 28.5 °F 25.5 °F 74% 30.00 in 10.0 mi NNW 4.6 mph - N/A   Overcast
3:14 AM 32.7 °F 27.3 °F 25.5 °F 75% 30.00 in 10.0 mi NW 5.8 mph - N/A   Overcast
3:35 AM 32.5 °F 27.1 °F 25.3 °F 75% 30.00 in 10.0 mi NNW 5.8 mph - N/A   Overcast
3:55 AM 32.4 °F 26.9 °F 25.3 °F 75% 30.00 in 10.0 mi NW 5.8 mph - N/A   Overcast
4:14 AM 32.2 °F 27.7 °F 25.3 °F 76% 30.00 in 10.0 mi NW 4.6 mph - N/A   Overcast
4:35 AM 32.2 °F 25.8 °F 25.2 °F 75% 30.00 in 10.0 mi NW 6.9 mph - N/A   Overcast
4:54 AM 32.0 °F 25.6 °F 25.3 °F 76% 30.00 in 10.0 mi NW 6.9 mph - N/A   Overcast
5:15 AM 32.0 °F 28.7 °F 25.5 °F 77% 30.01 in 10.0 mi NW 3.5 mph - N/A   Overcast
5:34 AM 32.0 °F 25.6 °F 25.7 °F 78% 30.01 in 10.0 mi NW 6.9 mph - N/A   Overcast
5:54 AM 32.0 °F 25.6 °F 25.7 °F 78% 30.01 in 10.0 mi NW 6.9 mph - N/A   Overcast
6:15 AM 32.0 °F 25.6 °F 25.7 °F 78% 30.02 in 10.0 mi NW 6.9 mph - N/A   Overcast
6:34 AM 32.0 °F 25.6 °F 25.7 °F 78% 30.02 in 10.0 mi NW 6.9 mph - N/A   Overcast
6:54 AM 32.0 °F 25.6 °F 25.9 °F 78% 30.03 in 10.0 mi NW 6.9 mph - N/A   Overcast
7:14 AM 32.0 °F 25.6 °F 26.4 °F 80% 30.04 in 10.0 mi NW 6.9 mph - N/A   Overcast
7:34 AM 32.0 °F 24.8 °F 26.6 °F 80% 30.04 in 10.0 mi NW 8.1 mph - N/A   Overcast
7:55 AM 32.0 °F 24.8 °F 27.3 °F 83% 30.05 in 10.0 mi NW 8.1 mph - N/A   Overcast
8:14 AM 32.0 °F 25.6 °F 27.5 °F 83% 30.06 in 10.0 mi NW 6.9 mph - N/A   Overcast
8:34 AM 32.0 °F 24.8 °F 27.5 °F 83% 30.07 in 10.0 mi NW 8.1 mph - N/A   Overcast
8:55 AM 32.4 °F 24.6 °F 27.5 °F 82% 30.08 in 10.0 mi NW 9.2 mph - N/A   Overcast
9:14 AM 32.7 °F 26.4 °F 27.5 °F 81% 30.08 in 10.0 mi NNW 6.9 mph - N/A   Overcast
9:35 AM 33.6 °F 26.2 °F 27.7 °F 79% 30.08 in 10.0 mi NW 9.2 mph - N/A   Overcast
9:55 AM 34.5 °F 26.7 °F 27.5 °F 76% 30.09 in 10.0 mi NNW 10.4 mph - N/A   Overcast
10:14 AM 35.2 °F 27.6 °F 27.7 °F 74% 30.09 in 10.0 mi NNW 10.4 mph 18.4 mph N/A   Overcast
10:35 AM 36.0 °F 28.0 °F 27.5 °F 71% 30.10 in 10.0 mi NNW 11.5 mph - N/A   Overcast
10:55 AM 36.9 °F 29.1 °F 28.4 °F 71% 30.10 in 10.0 mi NNW 11.5 mph - N/A   Overcast
11:14 AM 36.9 °F 29.6 °F 28.2 °F 71% 30.10 in 10.0 mi NW 10.4 mph - N/A   Overcast
11:35 AM 37.8 °F 30.2 °F 28.0 °F 68% 30.10 in 10.0 mi NW 11.5 mph - N/A   Overcast
11:55 AM 39.6 °F 31.7 °F 27.9 °F 63% 30.10 in 10.0 mi WNW 13.8 mph 18.4 mph N/A   Overcast
12:14 PM 39.4 °F 32.7 °F 27.0 °F 61% 30.10 in 10.0 mi NW 10.4 mph 17.3 mph N/A   Overcast
12:35 PM 38.5 °F 31.1 °F 26.4 °F 62% 30.10 in 10.0 mi NW 11.5 mph - N/A   Overcast
12:54 PM 38.7 °F 30.5 °F 25.7 °F 60% 30.10 in 10.0 mi NW 13.8 mph 19.6 mph N/A   Overcast
1:14 PM 41.7 °F 33.4 °F 27.3 °F 57% 30.10 in 10.0 mi WNW 17.3 mph - N/A   Overcast
1:35 PM 39.2 °F 30.8 °F 26.1 °F 59% 30.10 in 10.0 mi NW 15.0 mph - N/A   Overcast
1:54 PM 38.8 °F 31.6 °F 27.1 °F 63% 30.10 in 10.0 mi NW 11.5 mph 17.3 mph N/A   Overcast
2:15 PM 39.0 °F 29.9 °F 27.1 °F 62% 30.10 in 10.0 mi WNW 17.3 mph - N/A   Overcast
2:35 PM 39.2 °F 32.5 °F 27.9 °F 64% 30.10 in 10.0 mi NW 10.4 mph 18.4 mph N/A   Overcast
2:54 PM 39.0 °F 31.4 °F 27.7 °F 64% 30.10 in 10.0 mi WNW 12.7 mph 17.3 mph N/A   Overcast
3:15 PM 39.4 °F 31.1 °F 26.4 °F 60% 30.10 in 10.0 mi NNW 15.0 mph 21.9 mph N/A   Overcast
3:35 PM 35.8 °F 29.4 °F 27.3 °F 71% 30.11 in 5.0 mi NNW 8.1 mph - N/A Snow Light Snow
3:54 PM 36.0 °F 29.6 °F 26.8 °F 69% 30.10 in 7.0 mi NNW 8.1 mph 18.4 mph N/A Snow Light Snow
4:15 PM 39.7 °F 30.3 °F 28.4 °F 64% 30.10 in 10.0 mi West 19.6 mph 24.2 mph N/A   Overcast
4:34 PM 40.3 °F 31.6 °F 28.2 °F 62% 30.11 in 10.0 mi WNW 17.3 mph 23.0 mph N/A   Overcast
4:55 PM 37.6 °F 28.4 °F 27.7 °F 67% 30.12 in 10.0 mi NW 16.1 mph 20.7 mph N/A   Overcast
5:15 PM 36.5 °F 27.0 °F 28.4 °F 72% 30.12 in 10.0 mi WNW 16.1 mph - N/A   Overcast
5:34 PM 36.1 °F 27.3 °F 28.8 °F 75% 30.12 in 10.0 mi WNW 13.8 mph 19.6 mph N/A   Overcast
5:55 PM 35.4 °F 26.8 °F 28.6 °F 76% 30.13 in 10.0 mi WNW 12.7 mph 20.7 mph N/A   Overcast
6:15 PM 35.2 °F 25.8 °F 28.4 °F 76% 30.13 in 10.0 mi NW 15.0 mph 18.4 mph N/A   Overcast
6:34 PM 34.7 °F 25.1 °F 28.4 °F 78% 30.13 in 10.0 mi WNW 15.0 mph 18.4 mph N/A   Overcast
6:55 PM 34.7 °F 25.5 °F 28.4 °F 78% 30.14 in 10.0 mi WNW 13.8 mph 18.4 mph N/A   Overcast
7:14 PM 34.7 °F 26.4 °F 28.2 °F 77% 30.14 in 10.0 mi WNW 11.5 mph - N/A   Overcast
7:34 PM 34.7 °F 25.1 °F 28.2 °F 77% 30.15 in 10.0 mi WNW 15.0 mph 19.6 mph N/A   Overcast
7:55 PM 34.3 °F 25.9 °F 28.0 °F 78% 30.15 in 10.0 mi NW 11.5 mph - N/A   Overcast
8:14 PM 34.3 °F 25.9 °F 27.5 °F 76% 30.15 in 10.0 mi NW 11.5 mph 18.4 mph N/A   Overcast
8:35 PM 34.3 °F 25.0 °F 27.5 °F 76% 30.15 in 10.0 mi WNW 13.8 mph 18.4 mph N/A   Overcast
8:55 PM 34.2 °F 25.2 °F 27.7 °F 77% 30.16 in 10.0 mi WNW 12.7 mph - N/A   Overcast
9:14 PM 34.2 °F 25.2 °F 27.9 °F 78% 30.16 in 10.0 mi WNW 12.7 mph - N/A   Overcast
9:35 PM 34.2 °F 26.2 °F 27.9 °F 78% 30.17 in 10.0 mi NW 10.4 mph - N/A   Overcast
9:55 PM 34.2 °F 26.2 °F 28.0 °F 78% 30.17 in 10.0 mi NW 10.4 mph - N/A   Overcast
10:14 PM 34.2 °F 24.8 °F 28.0 °F 78% 30.17 in 10.0 mi WNW 13.8 mph 19.6 mph N/A   Overcast
10:35 PM 33.8 °F 25.8 °F 28.0 °F 79% 30.17 in 10.0 mi WNW 10.4 mph - N/A   Overcast
10:55 PM 33.8 °F 25.3 °F 28.0 °F 79% 30.17 in 10.0 mi WNW 11.5 mph - N/A   Overcast
11:14 PM 34.2 °F 25.7 °F 28.4 °F 79% 30.17 in 10.0 mi NW 11.5 mph - N/A   Overcast
11:35 PM 34.0 °F 27.2 °F 28.4 °F 80% 30.18 in 10.0 mi NW 8.1 mph - N/A   Overcast
11:54 PM 33.8 °F 27.0 °F 28.4 °F 81% 30.18 in 10.0 mi NW 8.1 mph - N/A   Overcast